Date,TemperatureHighF,TemperatureAvgF,TemperatureLowF,DewpointHighF,DewpointAvgF,DewpointLowF,HumidityHigh,HumidityAvg,HumidityLow,PressureMaxIn,PressureMinIn,WindSpeedMaxMPH,WindSpeedAvgMPH,GustSpeedMaxMPH,PrecipitationSumIn
2013-5-17,63,56,46,39,38,36,76,52,37,30.23,30.05,8,2,15,0.00
2013-5-18,72,56,40,46,40,33,91,60,30,30.31,30.22,6,1,10,0.00
2013-5-19,66,53,42,55,49,41,99,88,63,30.32,30.18,6,1,7,0.17
2013-5-20,74,62,53,63,58,52,99,87,67,30.17,29.95,15,2,22,0.01
2013-5-21,80,62,49,68,59,48,99,88,64,30.02,29.85,9,1,16,0.75
2013-5-22,63,55,49,61,54,48,100,98,90,29.95,29.83,7,1,12,0.80
2013-5-23,75,62,50,68,60,50,100,92,72,29.89,29.75,10,2,20,0.03
2013-5-24,64,55,43,63,53,42,100,95,88,29.88,29.62,8,2,17,0.36
2013-5-25,43,40,33,43,39,33,99,98,96,29.87,29.80,12,3,17,0.77
2013-5-26,49,42,34,41,38,33,99,85,69,30.10,29.78,11,4,21,0.08
2013-5-27,66,53,41,41,38,33,86,60,33,30.20,30.08,10,3,18,0.00
2013-5-28,73,57,40,48,42,36,85,60,36,30.25,30.14,6,1,8,0.00
2013-5-29,61,55,49,60,53,44,100,94,69,30.16,29.98,3,0,7,0.21
2013-5-30,83,73,58,66,64,58,100,74,51,30.09,30.01,15,5,21,0.00
2013-5-31,89,79,68,67,63,55,82,60,33,30.07,29.90,11,3,14,0.00
2013-6-1,89,81,74,69,65,62,76,60,42,29.92,29.80,10,3,15,0.00
2013-6-2,88,75,65,71,67,64,98,78,52,29.80,29.63,12,3,27,1.10
2013-6-3,74,66,54,64,56,44,95,73,38,29.81,29.73,12,3,20,0.00
2013-6-4,65,55,46,46,43,39,77,64,46,30.11,29.82,9,4,20,0.00
2013-6-5,72,59,48,47,43,38,85,58,35,30.20,30.09,7,1,12,0.00
2013-6-6,70,60,49,56,47,38,94,65,45,30.18,30.08,3,1,8,0.02
2013-6-7,54,50,48,52,49,47,99,97,88,30.09,29.88,6,2,9,1.02
2013-6-8,66,57,49,60,55,49,100,93,80,30.02,29.73,9,2,15,0.58
2013-6-9,73,64,56,57,55,52,98,74,49,30.17,30.02,12,2,16,0.00
2013-6-10,68,61,54,60,56,51,99,84,64,30.19,29.99,4,1,8,0.17
2013-6-11,57,54,51,56,54,51,100,99,95,29.97,29.59,6,1,13,1.13
2013-6-12,61,56,52,55,53,51,100,91,78,29.85,29.58,10,3,15,0.10
2013-6-13,64,56,50,56,52,49,99,89,67,29.83,29.71,3,0,7,0.27
2013-6-14,73,61,49,57,51,45,99,75,39,29.81,29.69,7,2,13,0.01
2013-6-15,72,64,55,51,45,41,69,53,37,29.93,29.81,11,3,14,0.00
2013-6-16,72,64,58,60,52,45,91,67,50,29.92,29.69,10,2,16,0.00
2013-6-17,75,65,57,63,59,54,97,82,53,29.89,29.76,11,4,28,0.30
2013-6-18,60,56,51,58,54,51,98,94,89,29.97,29.88,2,0,9,0.17
2013-6-19,69,58,49,52,47,38,99,69,36,30.17,29.95,7,2,12,0.00
2013-6-20,76,63,47,52,46,37,92,58,25,30.27,30.18,6,1,11,0.00
2013-6-21,81,69,59,58,54,50,84,60,38,30.24,30.18,7,2,12,0.00
2013-6-22,81,70,57,67,61,51,93,73,53,30.20,30.08,8,1,14,0.01
2013-6-23,88,74,64,72,67,63,95,80,57,30.12,29.93,8,2,16,0.38
2013-6-24,86,76,70,73,68,64,89,76,59,29.96,29.88,12,5,23,0.06
2013-6-25,86,74,67,70,67,64,97,78,53,29.93,29.72,12,3,19,0.49
2013-6-26,75,68,64,70,67,64,100,95,83,29.82,29.71,7,1,13,1.24
2013-6-27,74,67,62,70,65,62,100,96,85,29.82,29.73,6,1,11,0.03
2013-6-28,72,63,55,68,62,55,100,97,82,29.73,29.46,7,1,12,1.94
2013-6-29,83,71,64,69,66,64,100,85,57,29.66,29.49,10,1,13,0.44
2013-6-30,82,72,66,72,67,64,100,86,66,29.90,29.67,9,2,12,0.04
2013-7-1,78,70,67,72,69,67,100,95,80,30.04,29.90,6,0,7,0.30
2013-7-2,80,70,60,74,67,60,100,93,78,30.16,30.02,9,2,13,0.65
2013-7-3,84,73,60,72,68,61,100,86,65,30.17,30.10,9,3,15,0.10
2013-7-4,89,80,73,74,72,70,91,77,58,30.17,30.03,9,3,18,0.00
2013-7-5,89,80,74,74,71,70,90,76,54,30.11,30.00,11,3,15,0.00
2013-7-6,83,77,71,71,69,65,89,76,56,30.04,29.96,10,4,15,0.00
2013-7-7,87,76,69,75,68,62,97,78,59,30.00,29.88,5,1,12,0.47
2013-7-8,81,72,65,72,69,65,100,92,66,30.03,29.89,7,1,10,0.00
2013-7-9,78,69,63,71,66,62,100,91,77,30.08,30.02,5,1,9,0.00
2013-7-10,78,70,64,73,69,64,100,96,85,30.04,29.76,9,2,18,0.67
2013-7-11,78,73,63,71,67,60,97,84,64,29.95,29.73,11,3,16,0.00
2013-7-12,80,68,60,66,60,56,94,78,58,30.19,29.96,4,1,8,0.00
2013-7-13,77,67,58,70,63,55,99,86,71,30.30,30.20,3,0,9,0.08
2013-7-14,84,76,68,72,70,67,100,83,66,30.30,30.20,7,2,9,0.00
2013-7-15,87,77,67,72,68,65,98,76,49,30.20,30.10,6,1,12,0.00
2013-7-16,86,78,72,71,68,65,83,71,57,30.16,30.11,6,2,11,0.00
2013-7-17,90,80,68,72,68,65,93,70,46,30.16,29.94,13,2,18,0.00
2013-7-18,89,78,69,73,71,69,99,80,52,29.99,29.90,11,2,17,0.45
2013-7-19,90,82,69,75,72,69,100,74,52,29.91,29.67,11,4,22,0.00
2013-7-20,82,75,70,70,66,63,91,74,62,29.78,29.62,18,5,22,0.08
2013-7-21,79,70,63,66,62,59,96,76,53,29.97,29.79,12,2,13,0.00
2013-7-22,76,66,60,70,64,58,100,94,81,30.01,29.87,4,1,8,0.73
2013-7-23,77,66,62,70,65,62,100,96,78,29.87,29.54,5,1,9,1.81
2013-7-24,73,67,52,67,61,47,93,81,67,29.99,29.57,8,3,15,0.00
2013-7-25,71,59,48,60,53,46,91,81,62,30.11,29.99,4,1,6,0.00
2013-7-26,70,63,59,63,60,58,98,89,76,30.09,29.97,7,1,9,0.09
2013-7-27,81,69,58,68,60,55,96,75,47,30.05,29.96,7,2,18,0.00
2013-7-28,80,69,60,70,64,58,100,87,64,29.99,29.93,9,1,13,0.03
2013-7-29,80,70,64,69,64,55,100,81,55,30.04,29.95,6,1,12,0.03
2013-7-30,74,67,60,59,56,54,80,69,49,30.10,30.04,7,2,11,0.00
2013-7-31,79,69,60,64,58,56,87,71,50,30.13,30.02,7,2,12,0.00
2013-8-1,78,65,57,65,61,55,97,86,63,30.02,29.83,9,1,16,0.24
2013-8-2,76,68,62,64,60,51,99,75,45,29.83,29.77,9,3,14,0.00
2013-8-3,75,66,58,60,57,54,97,72,50,29.84,29.76,11,3,16,0.00
2013-8-4,69,63,57,59,55,51,89,76,61,29.90,29.79,8,3,18,0.03
2013-8-5,68,60,53,51,46,39,90,64,34,30.06,29.90,11,4,19,0.00
2013-8-6,77,63,48,58,51,46,92,68,39,30.14,30.06,3,1,7,0.00
2013-8-7,78,67,57,62,58,54,97,75,47,30.16,30.06,9,1,14,0.00
2013-8-8,82,72,63,70,66,59,94,83,68,30.06,29.96,11,2,18,0.00
2013-8-9,76,72,68,71,69,66,97,92,82,29.96,29.71,10,2,14,0.38
2013-8-10,74,68,59,67,56,45,95,69,37,30.01,29.77,14,4,21,0.00
2013-8-11,74,64,54,56,52,49,85,67,47,30.07,30.00,7,2,11,0.00
2013-8-12,76,68,60,59,56,52,82,66,50,30.02,29.90,9,2,13,0.00
2013-8-13,70,65,60,67,62,58,98,92,72,29.90,29.68,7,1,10,0.74
2013-8-14,67,60,53,64,53,49,97,80,61,29.95,29.65,14,4,21,0.00
2013-8-15,70,61,53,54,51,48,86,70,52,30.10,29.95,12,4,16,0.00
2013-8-16,74,64,57,57,53,49,80,67,52,30.19,30.09,8,2,13,0.00
2013-8-17,76,65,55,62,56,53,95,74,48,30.28,30.19,4,1,8,0.00
2013-8-18,74,65,56,63,58,54,97,79,57,30.27,30.07,7,1,11,0.00
2013-8-19,78,69,60,62,60,56,91,73,52,30.07,29.94,8,2,12,0.00
2013-8-20,81,72,62,63,61,58,87,70,49,30.08,29.98,8,2,12,0.00
2013-8-21,83,74,64,67,63,59,84,69,56,30.13,30.00,10,2,12,0.00
2013-8-22,84,75,66,67,63,60,95,69,46,30.00,29.79,11,3,16,0.03
2013-8-23,73,65,56,65,56,50,95,76,47,30.15,29.81,8,2,14,0.00
2013-8-24,76,61,48,57,49,44,95,68,34,30.34,30.15,4,1,6,0.00
2013-8-25,77,64,50,57,53,47,96,68,43,30.37,30.15,7,1,14,0.00
2013-8-26,74,68,61,67,63,56,92,83,66,30.16,29.86,20,5,24,0.14
2013-8-27,82,72,65,71,67,64,98,85,58,29.88,29.83,5,1,11,0.00
2013-8-28,83,71,63,72,67,62,100,88,67,29.98,29.84,9,1,11,0.79
2013-8-29,68,63,60,65,62,60,100,97,89,30.06,29.94,3,1,6,0.04
2013-8-30,81,70,60,67,64,60,100,82,59,30.02,29.79,17,2,17,0.00
2013-8-31,78,72,66,72,68,64,94,86,73,29.80,29.72,11,3,17,0.02
2013-9-1,80,72,68,74,69,67,99,90,71,29.85,29.76,12,2,16,0.17
2013-9-2,75,70,66,73,69,65,100,97,90,29.84,29.69,4,0,14,0.80
2013-9-3,70,65,59,64,61,56,100,89,71,29.81,29.68,9,2,13,0.00
2013-9-4,74,65,58,59,56,52,94,75,52,29.90,29.79,11,4,16,0.00
2013-9-5,65,58,46,57,48,39,93,69,43,30.16,29.84,7,2,14,0.00
2013-9-6,65,54,42,47,42,39,88,65,44,30.25,30.09,12,2,16,0.00
2013-9-7,70,61,56,53,47,42,76,61,45,30.08,29.83,11,4,19,0.00
2013-9-8,62,57,48,57,46,39,91,68,53,30.09,29.75,13,5,20,0.00
2013-9-9,67,55,43,50,44,38,85,66,39,30.23,30.09,8,2,24,0.00
2013-9-10,72,64,55,68,61,50,100,91,73,30.12,30.01,6,1,15,0.12
2013-9-11,89,78,66,76,71,63,100,80,59,30.05,29.91,11,4,21,0.19
2013-9-12,78,69,65,72,66,63,100,90,72,29.91,29.64,10,2,13,0.85
2013-9-13,65,61,53,65,59,51,100,95,89,29.79,29.59,8,2,14,0.07
2013-9-14,58,53,50,51,50,49,97,89,78,30.06,29.78,8,3,13,0.00
2013-9-15,66,55,44,53,49,44,99,81,60,30.16,30.03,12,2,15,0.00
2013-9-16,58,52,40,53,47,35,95,81,67,30.29,29.99,12,3,16,0.10
2013-9-17,62,48,38,45,40,35,90,72,49,30.46,30.29,5,1,9,0.00
2013-9-18,71,55,41,51,45,37,96,70,34,30.35,30.14,7,1,14,0.00
2013-9-19,79,62,47,57,50,43,95,67,42,30.14,30.04,5,1,11,0.00
2013-9-20,78,62,50,60,55,49,97,79,48,30.11,29.98,2,0,6,0.00
2013-9-21,70,62,51,62,56,47,98,82,49,29.99,29.66,9,2,18,0.00
2013-9-22,66,57,46,63,53,42,97,86,69,29.84,29.57,11,3,17,0.58
2013-9-23,52,46,42,42,40,38,88,80,68,30.03,29.84,10,5,17,0.00
2013-9-24,60,50,44,44,41,38,83,72,47,30.02,29.86,12,4,19,0.00
2013-9-25,62,54,48,52,47,43,86,78,67,30.00,29.90,7,2,12,0.00
2013-9-26,64,53,43,52,47,42,95,81,60,30.16,30.00,6,1,9,0.00
2013-9-27,67,55,50,54,50,48,96,85,60,30.29,30.16,4,0,6,0.00
2013-9-28,72,57,47,58,51,46,99,83,53,30.36,30.27,3,0,5,0.00
2013-9-29,70,56,47,56,50,45,100,82,52,30.27,30.10,3,0,7,0.01
2013-9-30,72,54,43,55,48,42,99,83,49,30.12,29.99,3,0,5,0.00
2013-10-1,73,59,46,58,52,45,99,80,57,30.00,29.88,8,1,12,0.01
2013-10-2,73,65,60,60,56,52,82,74,59,29.95,29.83,12,4,22,0.00
2013-10-3,71,62,53,54,49,46,82,64,44,30.09,29.95,10,2,13,0.00
2013-10-4,62,56,48,57,52,47,95,87,77,30.10,30.04,1,0,3,0.01
2013-10-5,62,58,55,55,53,48,97,84,70,30.13,30.07,2,0,4,0.01
2013-10-6,57,49,45,55,48,43,100,95,73,30.21,30.12,7,2,11,0.35
2013-10-7,67,55,48,66,54,48,100,97,84,30.14,29.73,9,2,16,0.47
2013-10-8,59,51,41,48,40,36,89,70,44,30.40,29.90,13,3,18,0.00
2013-10-9,62,46,36,45,39,34,97,78,48,30.51,30.39,4,0,6,0.00
2013-10-10,61,49,39,51,42,33,94,78,53,30.39,30.22,3,0,3,0.00
2013-10-11,67,54,46,50,43,32,89,67,45,30.21,30.14,2,0,4,0.00
2013-10-12,52,50,47,52,48,43,100,95,74,30.41,30.20,4,1,6,0.02
2013-10-13,59,48,41,50,45,41,100,91,70,30.47,30.39,4,0,7,0.01
2013-10-14,65,52,41,55,48,41,100,87,60,30.40,30.25,4,0,5,0.00
2013-10-15,60,57,52,55,53,50,96,89,81,30.27,30.15,4,0,10,0.00
2013-10-16,57,53,49,52,49,47,97,89,81,30.15,29.89,4,1,8,0.00
2013-10-17,66,58,51,55,51,46,97,77,53,29.88,29.70,11,2,15,0.00
2013-10-18,57,53,48,54,47,37,100,80,61,29.89,29.57,16,5,21,0.12
2013-10-19,61,53,46,45,42,38,81,65,49,29.94,29.71,12,3,18,0.00
2013-10-20,52,48,42,47,39,34,92,71,52,30.01,29.65,14,5,19,0.00
2013-10-21,62,51,40,43,39,36,92,66,49,30.09,29.95,11,2,15,0.00
2013-10-22,55,49,41,49,42,32,89,77,61,29.94,29.71,11,3,17,0.01
2013-10-23,50,43,36,36,32,29,83,67,47,29.77,29.59,8,2,11,0.00
2013-10-24,42,38,32,36,32,28,96,77,61,29.88,29.66,18,4,21,0.01
2013-10-25,42,37,34,33,29,26,89,74,54,30.13,29.89,14,4,18,0.00
2013-10-26,46,41,35,33,30,26,88,67,47,30.14,29.85,10,3,18,0.00
2013-10-27,47,42,37,36,32,28,77,66,53,30.04,29.78,9,3,16,0.00
2013-10-28,49,39,30,36,30,21,80,70,57,30.37,30.04,14,4,23,0.00
2013-10-29,43,32,24,24,19,15,83,61,33,30.47,30.37,5,1,8,0.00
2013-10-30,44,36,31,37,29,18,94,75,56,30.39,30.23,9,1,14,0.00
2013-10-31,59,48,36,57,46,35,98,92,78,30.26,29.73,15,2,24,0.25
2013-11-1,65,60,52,61,54,43,94,84,60,29.72,29.36,19,7,29,0.53
2013-11-2,57,50,38,45,42,35,94,77,58,29.79,29.59,10,3,16,0.09
2013-11-3,38,32,26,35,22,15,88,67,46,30.47,29.80,9,4,15,0.00
2013-11-4,38,28,22,19,16,15,77,62,40,30.73,30.47,4,1,8,0.00
2013-11-5,48,35,25,34,26,16,88,69,53,30.73,30.51,7,0,10,0.00
2013-11-6,57,46,36,46,40,33,96,81,64,30.51,29.98,16,2,22,0.00
2013-11-7,55,47,34,53,44,31,97,90,82,29.97,29.68,12,4,17,0.14
2013-11-8,39,33,29,32,26,23,86,75,67,30.08,29.80,11,4,19,0.00
2013-11-9,39,34,30,31,24,21,84,66,52,30.20,30.02,10,2,15,0.00
2013-11-10,43,37,30,39,34,30,99,90,78,30.01,29.75,13,3,20,0.07
2013-11-11,46,38,32,31,28,24,84,68,43,30.09,29.88,16,4,21,0.00
2013-11-12,40,28,23,34,20,15,94,73,59,30.20,29.88,11,5,19,0.00
2013-11-13,28,24,18,20,14,11,82,67,48,30.33,30.13,12,5,22,0.00
2013-11-14,43,37,29,29,23,17,70,58,38,30.13,30.07,18,6,24,0.00
2013-11-15,54,46,41,22,17,13,44,31,23,30.19,30.10,17,4,23,0.00
2013-11-16,56,47,39,33,27,19,67,46,32,30.31,30.18,14,1,14,0.00
2013-11-17,44,41,38,44,38,29,99,87,66,30.30,29.84,8,1,9,0.11
2013-11-18,58,49,41,58,42,31,100,78,49,29.82,29.51,11,3,21,0.42
2013-11-19,41,31,26,31,21,15,83,65,57,30.32,29.63,17,7,31,0.00
2013-11-20,34,27,22,17,15,12,80,62,42,30.66,30.32,19,3,19,0.00
2013-11-21,44,32,19,31,16,4,76,54,20,30.68,30.38,11,1,16,0.00
2013-11-22,44,39,36,42,37,30,100,92,72,30.37,29.81,15,2,18,0.19
2013-11-23,43,32,22,42,24,12,95,74,53,29.93,29.76,16,6,23,0.00
2013-11-24,21,16,11,19,5,-3,94,62,44,30.22,29.78,23,8,36,0.00
2013-11-25,27,18,8,14,4,-3,65,55,38,30.41,30.22,12,3,18,0.00
2013-11-26,33,29,25,29,23,13,98,81,55,30.32,30.07,9,1,15,0.00
2013-11-27,47,37,30,47,37,28,100,98,90,30.06,29.31,19,3,20,1.03
2013-11-28,30,22,15,28,13,6,95,71,52,30.43,29.46,16,6,27,0.00
2013-11-29,24,16,12,10,7,6,85,68,48,30.79,30.43,12,2,14,0.00
2013-11-30,28,18,8,17,10,4,85,71,50,30.84,30.45,4,0,7,0.00
2013-12-1,37,31,25,32,28,18,98,87,75,30.45,30.06,5,0,12,0.00
2013-12-2,37,34,32,36,34,32,99,98,96,30.06,29.93,0,0,1,0.00
2013-12-3,40,32,29,36,31,29,100,95,82,29.97,29.90,7,1,9,0.00
2013-12-4,38,31,28,29,26,22,96,81,63,30.21,29.97,12,2,14,0.00
2013-12-5,54,36,29,53,34,26,100,93,78,30.22,29.91,8,1,23,0.01
2013-12-6,53,40,30,52,37,27,99,89,72,30.13,29.88,9,3,14,0.18
2013-12-7,30,27,23,29,22,16,98,82,60,30.45,30.08,8,3,19,0.00
2013-12-8,24,22,19,18,14,13,83,73,64,30.59,30.45,6,1,9,0.00
2013-12-9,32,25,20,31,22,13,99,91,70,30.51,29.90,6,2,12,0.00
2013-12-10,32,27,18,30,21,10,94,79,55,29.95,29.78,11,4,16,0.00
2013-12-11,26,20,16,18,14,10,92,76,54,30.16,29.96,10,3,18,0.00
2013-12-12,17,13,10,14,5,-2,92,70,44,30.27,30.03,13,4,19,0.00
2013-12-13,19,12,1,15,7,-4,91,81,69,30.43,29.95,10,3,16,0.00
2013-12-14,10,4,-2,8,-2,-8,92,76,52,30.64,30.25,6,1,12,0.00
2013-12-15,22,18,10,21,16,8,96,94,91,30.21,29.55,10,3,21,0.00
2013-12-16,20,16,3,18,8,-3,94,73,49,30.21,29.73,14,5,26,0.00
2013-12-17,12,4,-5,10,0,-9,93,85,71,30.29,30.08,4,0,10,0.00
2013-12-18,26,19,9,21,15,8,93,87,79,30.08,29.96,10,2,18,0.00
2013-12-19,35,30,24,30,24,21,87,78,66,30.10,29.95,10,4,18,0.00
2013-12-20,46,40,34,40,34,30,89,78,61,30.11,29.90,14,3,17,0.17
2013-12-21,55,49,44,52,45,40,100,87,76,29.90,29.83,18,3,18,0.16
2013-12-22,48,37,32,48,37,32,100,99,97,29.98,29.69,7,1,13,0.07
2013-12-23,36,32,30,36,32,28,100,99,88,30.14,29.98,9,1,13,0.01
2013-12-24,31,24,15,27,17,8,87,77,62,30.22,30.07,11,4,16,0.00
2013-12-25,17,10,3,8,3,-2,83,72,57,30.55,30.21,12,3,16,0.00
2013-12-26,26,20,12,25,17,6,96,88,74,30.51,30.13,6,2,12,0.00
2013-12-27,27,25,22,22,20,18,92,82,70,30.25,30.19,12,3,17,0.00
2013-12-28,38,33,26,32,27,21,85,79,69,30.19,29.99,16,5,22,0.04
2013-12-29,40,35,32,33,31,29,99,86,72,30.02,29.57,14,1,16,0.03
2013-12-30,35,24,4,34,20,-1,99,84,65,30.17,29.57,15,3,23,0.05
2013-12-31,16,8,0,13,3,-9,92,80,65,30.19,30.05,9,1,17,0.00
2014-1-1,16,12,8,10,7,5,88,80,69,30.41,30.19,12,4,17,0.00
2014-1-2,10,4,-3,6,1,-6,89,87,85,30.40,29.97,4,0,9,0.00